Current Weather Conditions: station LYUZ

sailwx.info

Wind at 2 knots

Air temperature 1.0° C
Dewpoint -2.0° C

Last reported at 2015-Jan-29 14:30 UTC.
Time now 2015-Jan-29 16:24 UTC

Location: N 43°54' E 019°42'.
View on Google Maps.

See reports from other nearby stations

  
Tides and Currents Weather Stations Pressure Air Temp Water Temp Dewpoint Dewpoint Depression Visibility Wind Speed Wind Dir Waves Ship Positions
date/time (UTC)wind fromknots sea level pressurealtimeterstation pressurevisibilityair tempwater tempwave heightnotes
2015-Jan-29 15:30 2.0
2015-Jan-29 15:00 2.0
2015-Jan-29 14:30 1.0
2015-Jan-29 14:00 210 5 1.0
2015-Jan-29 13:30 1.0
2015-Jan-29 13:00 210 3 2.0
2015-Jan-29 12:30 210 9 2.0
2015-Jan-29 12:00 210 9 2.0
2015-Jan-29 11:30 210 11 1.0
2015-Jan-29 11:00 200 7 1.0
2015-Jan-29 10:30 200 9 -0.0
2015-Jan-29 10:00 200 6 -0.0
2015-Jan-29 09:30 200 9 -1.0
2015-Jan-29 09:00 210 6 -2.0
2015-Jan-29 08:30 200 3 -2.0
2015-Jan-29 08:00 200 8 -1.0
2015-Jan-29 07:30 240 5 -4.0
2015-Jan-29 07:00 290 5 -5.0
2015-Jan-29 06:30 260 5 -6.0
2015-Jan-29 06:00 270 5 4.3-7.0
2015-Jan-29 05:30 280 4 -6.0
2015-Jan-29 05:00 270 3 -5.0
2015-Jan-29 04:30 220 6 -5.0
2015-Jan-29 04:00 220 5 -5.0
2015-Jan-29 03:30 200 3 -5.0
2015-Jan-29 03:00 -5.0
2015-Jan-29 02:30 -5.0
2015-Jan-29 02:00 -6.0
2015-Jan-29 01:30 -6.0
2015-Jan-29 01:00 -5.0
2015-Jan-29 00:30 120 3 -4.0
2015-Jan-29 00:00 -4.0
2015-Jan-28 23:30 -4.0
2015-Jan-28 23:00 -4.0
2015-Jan-28 22:30 -4.0
2015-Jan-28 22:00 -4.0
2015-Jan-28 21:30 -4.0
2015-Jan-28 21:00 -4.0
2015-Jan-28 20:30 -4.0
2015-Jan-28 20:00 -4.0
2015-Jan-28 19:30 -4.0
2015-Jan-28 19:00 -4.0
2015-Jan-28 18:30 -4.0
2015-Jan-28 18:00 0.3-4.0 Freezing fog.
2015-Jan-28 17:30 0.3-4.0 Freezing fog.
2015-Jan-28 17:00 310 3 0.3-4.0 Freezing fog.
2015-Jan-28 16:30 320 3 0.1-4.0 Freezing fog.
2015-Jan-28 16:00 320 3 0.1-4.0 Freezing fog.
2015-Jan-28 15:30 320 3 0.1-4.0 Freezing fog.
2015-Jan-28 15:00 320 4 0.1-4.0 Freezing fog.
2015-Jan-28 14:30 320 4 0.1-4.0 Freezing fog.
2015-Jan-28 14:00 320 5 0.1-4.0 Freezing fog.
2015-Jan-28 13:30 320 4 0.2-4.0 Freezing fog.
2015-Jan-28 13:00 320 4 0.3-4.0 Freezing fog.
2015-Jan-28 12:30 310 4 1.1-4.0 Mist.
2015-Jan-28 12:00 310 4 1.1-4.0 Mist.
2015-Jan-28 11:30 310 5 1.6-4.0 Mist.
2015-Jan-28 11:00 300 5 1.6-4.0 Mist.
2015-Jan-28 10:30 300 3 1.1-4.0 Light snow. Mist.
2015-Jan-28 10:00 310 6 1.1-4.0 Light snow. Mist.
2015-Jan-28 09:30 320 8 0.5-4.0 Light snow. Mist.
2015-Jan-28 09:00 320 8 0.3-4.0 Light snow. Freezing fog.
2015-Jan-28 08:30 320 8 0.3-5.0 Light snow. Freezing fog.
2015-Jan-28 08:00 320 8 0.1-5.0 Light snow. Freezing fog.
2015-Jan-28 07:30 320 8 0.1-5.0 Light snow. Freezing fog.
2015-Jan-28 07:00 310 8 0.1-5.0 Light snow. Freezing fog.
2015-Jan-28 06:30 320 8 0.1-5.0 Light snow. Freezing fog.
2015-Jan-28 06:00 320 9 0.1-5.0 Light snow. Freezing fog.
2015-Jan-28 05:30 310 8 -4.0
2015-Jan-28 05:00 320 6 -4.0
2015-Jan-28 04:30 320 5 -4.0
2015-Jan-28 04:00 320 6 -4.0
2015-Jan-28 03:30 330 5 -4.0
2015-Jan-28 03:00 340 4 -4.0
2015-Jan-28 02:30 340 5 -4.0
2015-Jan-28 02:00 340 5 -4.0
2015-Jan-28 01:30 340 6 -4.0
2015-Jan-28 01:00 320 5 -3.0
2015-Jan-28 00:30 320 5 -3.0
2015-Jan-28 00:00 320 5 -3.0
2015-Jan-27 23:30 320 4 -3.0
2015-Jan-27 23:00 320 4 -3.0
2015-Jan-27 22:30 330 3 -3.0
2015-Jan-27 22:00 330 4 -3.0
2015-Jan-27 21:30 320 3 -3.0
2015-Jan-27 21:00 330 3 -3.0
2015-Jan-27 20:30 320 3 -3.0
2015-Jan-27 20:00 350 3 -3.0
2015-Jan-27 19:30 340 3 -3.0
2015-Jan-27 19:00 340 4 -3.0
2015-Jan-27 18:30 310 3 -3.0
2015-Jan-27 18:00 360 3 0.1-3.0 Light snow. Freezing fog.
2015-Jan-27 17:30 0.1-3.0 Light snow. Freezing fog.
2015-Jan-27 17:00 0.2-3.0 Light snow. Freezing fog.
2015-Jan-27 16:30 340 3 0.2-3.0 Light snow. Freezing fog.
2015-Jan-27 16:00 320 4 0.1-3.0 Light snow. Freezing fog.